Regional Weather Roundup
Issued by NWS Albany, NY

Home | Current Version | Previous Version | Text Only | Print | Product List | Glossary On
Versions: 1 2 3 4 5 6 7 8 9 10 11 12 13 14 15 16 17 18 19 20 21 22 23 24 25 26 27 28 29 30 31 32 33 34 35 36 37 38 39 40 41 42 43 44 45 46 47 48 49 50
000
ASUS41 KALY 220010
RWRALY

NEW YORK STATE HOURLY WEATHER ROUNDUP
NATIONAL WEATHER SERVICE ALBANY NY
700 PM EST TUE FEB 21 2017

NOTE: "FAIR" INDICATES FEW OR NO CLOUDS BELOW 12,000 FEET WITH NO
SIGNIFICANT WEATHER AND/OR NO OBSTRUCTIONS TO VISIBILITY.

NYZ032-033-038>043-046>054-057>066-NYZ062>081-082-084-220100-
EAST


CITY           SKY/WX    TMP DP  RH WIND       PRES   REMARKS
ALBANY         CLOUDY    43  21  41 S15       30.11S
GLENS FALLS    CLOUDY    42  20  41 S6        30.10F
POUGHKEEPSIE   NOT AVBL
NEWBURGH       MOCLDY    43  30  61 S6        30.17S
NEW YORK CITY  CLOUDY    44  31  60 S14       30.22S
CENTRAL PARK   MOCLDY    42  32  67 S7        30.22F
$$

NYZ005>009-017-018-044>046-055-056-220100-
CENTRAL


CITY           SKY/WX    TMP DP  RH WIND       PRES   REMARKS
FULTON         CLOUDY    44  24  45 SE3       30.01R
SYRACUSE       CLOUDY    46  24  42 CALM      30.02R
ROME           MOCLDY    38  25  59 E7        30.06F WCI  33
ELMIRA         NOT AVBL
BINGHAMTON     NOT AVBL
$$

NYZ026>034-041>043-087-220100-
NORTH


CITY           SKY/WX    TMP DP  RH WIND       PRES   REMARKS
WATERTOWN      LGT RAIN  44  28  53 SW5       29.97F
FORT DRUM      NOT AVBL
OGDENSBURG     DRIZZLE   39  30  69 S3        29.97F
MASSENA        LGT RAIN  34  26  72 CALM      30.00S
SARANAC LAKE   CLOUDY    38  18  44 W6        29.97R WCI  33
PLATTSBURGH    NOT AVBL
$$

NYZ001>004-010>016-019>021-085-220100-
WEST


CITY           SKY/WX    TMP DP  RH WIND       PRES   REMARKS
NIAGARA FALLS  CLOUDY    48  43  82 S3        29.94F
BUFFALO        CLOUDY    46  41  82 SW7       29.95R
DUNKIRK        CLOUDY    47  42  83 W10       29.96R
JAMESTOWN      CLOUDY    50  36  57 S10       29.96F
WELLSVILLE     CLOUDY    47  24  40 S9        30.03R
ROCHESTER      LGT RAIN  50  38  63 NW7       29.98R
PENN YAN       LGT RAIN  47  23  38 S16       30.01R
$$

             KEY
       WCI = WIND CHILL INDEX
       VSB = VISIBILITY
       HX  = HEAT INDEX
$$



USA.gov is the U.S. government's official web portal to all federal, state and local government web resources and services.